This demonstration page uses our WeatherBlox Daily Observations layout. Learn more.

Left ArrowRight Arrow

Hourly Observations for June 8, 2021

Temp ( °F °C ) Dew Point ( °F °C ) Humidity (%) Winds ( mph kmh ) Pressure ( in mb ) Visibility ( mi km ) Precip ( " mm )
12:53 am 00:53 Clear 79 26.1 34 1.1 20 20 W 8 13 29.65 1004 10 16 0.00 0.00
1:53 am 01:53 Clear 78 25.6 59 15 52 52 SE 10 17 29.66 1005 10 16 0.00 0.00
2:53 am 02:53 Clear 78 25.6 67 19.4 69 69 SE 15 24 29.66 1005 10 16 0.00 0.00
3:53 am 03:53 Clear 76 24.4 68 20 77 77 SE 12 19 29.67 1005 9 14 0.00 0.00
4:53 am 04:53 Clear 74 23.3 69 20.6 85 85 SE 8 13 29.68 1005 7 11 0.00 0.00
5:53 am 05:53 Clear with Mist and Fog 73 22.8 69 20.6 87 87 SE 8 13 29.70 1006 6 10 0.00 0.00
6:53 am 06:53 Sunny with Mist and Fog 71 21.7 68 20 90 90 SE 6 9 29.72 1006 5 8 0.00 0.00
7:53 am 07:53 Sunny with Mist and Fog 73 22.8 70 21.1 90 90 SE 7 11 29.74 1007 3 5 0.00 0.00
8:42 am 08:42 Hazy 77 25 71 21.7 82 82 E 6 9 29.78 1008 5 8 0.00 0.00
8:53 am 08:53 Hazy 76 24.4 70 21.1 82 82 E 13 20 29.79 1009 4 6 0.00 0.00
9:03 am 09:03 Mostly Cloudy with Haze 77 25 70 21.1 79 79 E 12 19 29.79 1009 5 8 0.00 0.00
9:10 am 09:10 Hazy 78 25.6 70 21.1 76 76 ESE 10 17 29.78 1008 5 8 0.00 0.00
9:53 am 09:53 Sunny 82 27.8 70 21.1 67 67 ESE 10 17 29.80 1009 7 11 0.00 0.00
10:53 am 10:53 Sunny 86 30 67 19.4 53 53 ESE 13 20 29.80 1009 9 14 0.00 0.00
11:53 am 11:53 Sunny 89 31.7 63 17.2 42 42 VRB 6 9 29.80 1009 10 16 0.00 0.00
12:53 pm 12:53 Sunny 93 33.9 59 15 32 32 Calm 29.79 1009 10 16 0.00 0.00
1:53 pm 13:53 Sunny 97 36.1 56 13.3 25 25 ESE 8 13 29.77 1008 10 16 0.00 0.00
2:53 pm 14:53 Sunny 99 37.2 53 11.7 21 21 VRB 3 6 29.74 1007 10 16 0.00 0.00
3:53 pm 15:53 Sunny 101 38.3 50 10 18 18 VRB 5 7 29.73 1007 10 16 0.00 0.00
4:53 pm 16:53 Sunny 102 38.9 47 8.3 15 15 SW 9 15 29.72 1006 10 16 0.00 0.00
5:53 pm 17:53 Sunny 103 39.4 43 6.1 13 13 WNW 6 9 29.70 1006 10 16 0.00 0.00
6:53 pm 18:53 Sunny 102 38.9 44 6.7 14 14 S 6 9 29.69 1006 10 16 0.00 0.00
7:53 pm 19:53 Sunny 100 37.8 43 6.1 14 14 SSE 8 13 29.70 1006 10 16 0.00 0.00
8:53 pm 20:53 Sunny 95 35 61 16.1 32 32 SE 20 31 29.72 1006 10 16 0.00 0.00
9:53 pm 21:53 Clear 92 33.3 63 17.2 38 38 SSE 20 31 29.74 1007 10 16 0.00 0.00
10:53 pm 22:53 Clear 88 31.1 69 20.6 54 54 SSE 25 41 29.77 1008 10 16 0.00 0.00
11:53 pm 23:53 Clear 84 28.9 69 20.6 61 61 SSE 14 22 29.79 1009 10 16 0.00 0.00

Powered by AerisWeather